This is the latest recevied weather packets stored in our database for station/object KD0RIH. If no packets are shown the sender has not sent any weather packets the latest 10 day(s).
| Time | Temp. | Humidity | Pressure | Rain* | Wind** | Luminosity | Snow |
|---|---|---|---|---|---|---|---|
| 1777778716 | 11.11° C | 48% | 1018.1 hPa | 0 mm | - | 0 W/m² | - |
| 1777778414 | 11.11° C | 49% | 1018.3 hPa | 0 mm | - | 0 W/m² | - |
| 1777778111 | 10.56° C | 50% | 1018.3 hPa | 0 mm | - | 0 W/m² | - |
| 1777777808 | 11.11° C | 51% | 1018.3 hPa | 0 mm | - | 0 W/m² | - |
| 1777777504 | 11.11° C | 51% | 1018.4 hPa | 0 mm | - | 0 W/m² | - |
| 1777777200 | 10.56° C | 52% | 1018.1 hPa | 0 mm | - | 0 W/m² | - |
| 1777776897 | 10.56° C | 52% | 1018.3 hPa | 0 mm | - | 0 W/m² | - |
| 1777776595 | 10.56° C | 49% | 1018.3 hPa | 0 mm | - | 0 W/m² | - |
| 1777776291 | 11.11° C | 49% | 1018.2 hPa | 0 mm | - | 0 W/m² | - |
| 1777775989 | 11.67° C | 48% | 1018.1 hPa | 0 mm | - | 0 W/m² | - |
| 1777775685 | 11.67° C | 47% | 1018.1 hPa | 0 mm | - | 0 W/m² | - |
| 1777775382 | 11.67° C | 46% | 1018.4 hPa | 0 mm | - | 0 W/m² | - |
| 1777775077 | 11.67° C | 44% | 1017.9 hPa | 0 mm | - | 0 W/m² | - |
| 1777774774 | 11.67° C | 45% | 1017.9 hPa | 0 mm | - | 0 W/m² | - |
| 1777774470 | 12.22° C | 44% | 1018.2 hPa | 0 mm | - | 0 W/m² | - |
| 1777774167 | 12.22° C | 42% | 1017.8 hPa | 0 mm | - | 0 W/m² | - |
| 1777773865 | 12.22° C | 43% | 1018.2 hPa | 0 mm | - | 0 W/m² | - |
| 1777773561 | 12.78° C | 42% | 1017.6 hPa | 0 mm | - | 0 W/m² | - |
| 1777773258 | 12.78° C | 41% | 1017.8 hPa | 0 mm | - | 0 W/m² | - |
| 1777772954 | 13.33° C | 40% | 1017.8 hPa | 0 mm | - | 0 W/m² | - |
| 1777772652 | 13.89° C | 38% | 1017.9 hPa | 0 mm | - | 0 W/m² | - |
| 1777772349 | 13.89° C | 37% | 1017.9 hPa | 0 mm | - | 0 W/m² | - |
| 1777772046 | 13.89° C | 36% | 1017.7 hPa | 0 mm | - | 0 W/m² | - |
| 1777771743 | 13.89° C | 38% | 1017.6 hPa | 0 mm | - | 0 W/m² | - |
| 1777771441 | 15° C | 35% | 1017.8 hPa | 0 mm | - | 0 W/m² | - |
* Rain latest hour (hover to see other rain measurements)
** Current wind speed in m/s (hover to see current wind gust speed)